EW4725 Weather Reports


time (UTC)temp
F
wind
direction
speed
knots
gust
knots
rain 1hr
in
rain 24hr
in
rain mn
in
humidity
%
barometer
mb
20260503002316 67 260 1.7 3.5 0.00 0.00 0.00 70 1010.5
20260503001816 67 260 6.1 8.7 0.00 0.00 0.00 69 1010.6
20260503001336 67 283 3.5 4.3 0.00 0.00 0.00 69 1010.5
20260503000816 67 305 5.2 7.8 0.00 0.00 0.00 69 1010.5
20260503000318 67 283 6.1 7.8 0.00 0.00 0.00 70 1010.5
20260502235816 67 260 4.3 6.1 0.00 0.00 0.00 70 1010.4
20260502235336 67 260 5.2 8.7 0.00 0.00 0.00 70 1010.6
20260502234816 67 283 4.3 6.1 0.00 0.00 0.00 70 1010.6
20260502234316 67 283 5.2 7.0 0.00 0.00 0.00 70 1010.6
20260502233816 68 260 5.2 8.7 0.00 0.00 0.00 69 1010.7
20260502233316 67 283 3.5 5.2 0.00 0.00 0.00 70 1010.6
20260502232816 68 283 6.1 9.6 0.00 0.00 0.00 69 1010.7
20260502232316 68 260 4.3 6.1 0.00 0.00 0.00 69 1010.8
20260502231816 68 260 4.3 7.8 0.00 0.00 0.00 69 1010.8
20260502231316 68 283 5.2 7.8 0.00 0.00 0.00 69 1010.8
20260502230836 68 305 6.1 8.7 0.00 0.00 0.00 69 1010.9
20260502230315 68 283 5.2 7.8 0.00 0.00 0.00 69 1010.9
20260502225836 68 260 6.1 7.8 0.00 0.00 0.00 69 1010.9
20260502225316 68 283 6.1 8.7 0.00 0.00 0.00 69 1010.9
20260502224816 69 260 7.0 10.4 0.00 0.00 0.00 68 1011.2
20260502224315 68 305 1.7 2.6 0.00 0.00 0.00 70 1011.3
20260502223816 68 283 6.1 7.8 0.00 0.00 0.00 69 1011.4
20260502223316 69 283 6.1 8.7 0.00 0.00 0.00 68 1011.7
20260502222816 69 283 6.1 9.6 0.00 0.00 0.00 68 1011.6
20260502222316 69 283 6.1 8.7 0.00 0.00 0.00 67 1011.7
20260502221815 69 305 4.3 7.0 0.00 0.00 0.00 68 1011.9
20260502221316 70 283 7.0 11.3 0.00 0.00 0.00 67 1011.8
20260502220816 70 260 6.1 7.8 0.00 0.00 0.00 67 1011.9
20260502220316 70 260 5.2 8.7 0.00 0.00 0.00 68 1012.0
20260502215816 70 283 4.3 6.1 0.00 0.00 0.00 66 1012.2
20260502215315 70 283 4.3 11.3 0.00 0.00 0.00 69 1012.2
20260502214815 70 328 6.1 9.6 0.00 0.00 0.00 67 1012.3
20260502214316 70 283 6.1 10.4 0.00 0.00 0.00 68 1012.3
20260502213836 71 283 4.3 7.8 0.00 0.00 0.00 67 1012.4
20260502213336 71 305 4.3 6.1 0.00 0.00 0.00 66 1012.5
20260502212816 71 260 3.5 5.2 0.00 0.00 0.00 66 1012.5
20260502212315 72 283 3.5 4.3 0.00 0.00 0.00 65 1012.6
20260502211816 72 283 3.5 4.3 0.00 0.00 0.00 66 1012.6
20260502211315 72 260 3.5 6.1 0.00 0.00 0.00 65 1012.7
20260502210815 72 215 2.6 5.2 0.00 0.00 0.00 66 1012.7
20260502210315 72 283 1.7 3.5 0.00 0.00 0.00 68 1012.7
20260502205816 71 238 1.7 4.3 0.00 0.00 0.00 68 1012.7
20260502205315 71 170 5.2 7.0 0.00 0.00 0.00 68 1012.7
20260502204835 70 148 2.6 5.2 0.00 0.00 0.00 68 1012.8
20260502204316 71 260 7.0 9.6 0.00 0.00 0.00 67 1012.8
20260502203816 71 283 4.3 6.1 0.00 0.00 0.00 67 1012.8
20260502203316 71 215 3.5 6.1 0.00 0.00 0.00 67 1012.8
20260502202836 71 238 2.6 5.2 0.00 0.00 0.00 69 1012.8
20260502202336 71 148 1.7 5.2 0.00 0.00 0.00 67 1012.8
20260502201815 71 215 3.5 4.3 0.00 0.00 0.00 67 1013.0
20260502201316 71 260 2.6 3.5 0.00 0.00 0.00 68 1013.2
20260502200815 70 260 3.5 5.2 0.00 0.00 0.00 69 1013.0
20260502200335 70 260 1.7 4.3 0.00 0.00 0.00 69 1013.2
20260502195816 70 215 2.6 3.5 0.00 0.00 0.00 70 1013.2
20260502195315 70 238 2.6 3.5 0.00 0.00 0.00 71 1013.3
20260502194817 70 238 1.7 3.5 0.00 0.00 0.00 71 1013.4
20260502194315 69 148 2.6 5.2 0.00 0.00 0.00 73 1013.5
20260502193815 68 305 3.5 4.3 0.00 0.00 0.00 74 1013.5
20260502193316 68 283 2.6 4.3 0.00 0.00 0.00 74 1013.7
20260502192816 68 238 3.5 7.8 0.00 0.00 0.00 74 1013.5
20260502192315 68 283 2.6 4.3 0.00 0.00 0.00 74 1013.6
20260502191815 67 125 0.9 1.7 0.00 0.00 0.00 75 1013.8
20260502191315 67 260 2.6 4.3 0.00 0.00 0.00 76 1013.9
20260502190815 67 283 2.6 3.5 0.00 0.00 0.00 76 1014.1
20260502190315 67 0.0 1.7 0.00 0.00 0.00 76 1014.2
20260502185815 67 215 1.7 2.6 0.00 0.00 0.00 78 1014.3
20260502185335 66 305 0.9 2.6 0.00 0.00 0.00 78 1014.3
20260502184815 65 215 0.9 1.7 0.00 0.00 0.00 79 1014.3
20260502184315 65 260 1.7 2.6 0.00 0.00 0.00 80 1014.3
20260502183815 65 238 1.7 4.3 0.00 0.00 0.00 80 1014.3
20260502183315 65 260 1.7 3.5 0.00 0.00 0.00 80 1014.4
20260502182315 64 125 0.9 1.7 0.00 0.00 0.00 82 1014.5
20260502181815 64 148 0.9 1.7 0.00 0.00 0.00 82 1014.4
20260502181335 64 125 1.7 2.6 0.00 0.00 0.00 82 1014.4
20260502180835 64 80 0.9 1.7 0.00 0.00 0.00 82 1014.4
20260502180315 64 58 1.7 2.6 0.00 0.00 0.00 82 1014.5
20260502170337 62 260 0.9 1.7 0.00 0.00 0.00 87 1015.0
20260502164317 61 0.0 0.9 0.00 0.00 0.00 88 1015.0
20260502163817 61 0.0 0.0 0.00 0.00 0.00 89 1014.9
20260502163337 61 0.0 0.0 0.00 0.00 0.00 89 1015.0
20260502162815 61 148 0.9 1.7 0.00 0.00 0.00 89 1015.1
20260502162317 61 0.0 0.9 0.00 0.00 0.00 89 1015.1
20260502161817 61 215 0.9 1.7 0.00 0.00 0.00 89 1015.1
20260502161317 61 0.0 0.0 0.00 0.00 0.00 89 1015.0
20260502160817 61 0.0 0.0 0.00 0.00 0.00 89 1015.1
20260502160317 61 148 0.9 1.7 0.00 0.00 0.00 89 1015.1
20260502152317 60 103 1.7 2.6 0.00 0.00 0.00 91 1014.9
20260502151817 60 125 1.7 1.7 0.00 0.00 0.00 91 1015.0
20260502151317 60 0.0 0.9 0.00 0.00 0.00 91 1014.8
20260502150817 60 125 0.9 0.9 0.00 0.00 0.00 91 1014.7
20260502150337 60 0.0 0.9 0.00 0.00 0.00 91 1014.6
20260502130317 59 170 0.9 0.9 0.00 0.00 0.00 91 1014.0
20260502123317 59 238 1.7 2.6 0.00 0.00 0.00 90 1013.7
20260502122816 59 170 0.9 1.7 0.00 0.00 0.00 90 1013.8
20260502122317 59 0.0 0.9 0.00 0.00 0.00 90 1013.8
20260502121816 59 283 0.9 1.7 0.00 0.00 0.00 90 1013.8
20260502121317 59 260 0.9 2.6 0.00 0.00 0.00 90 1013.7
20260502120837 59 0.0 0.9 0.00 0.00 0.00 91 1013.7
20260502120316 59 0.0 0.9 0.00 0.00 0.00 91 1013.7
20260502115817 59 0.0 0.0 0.00 0.00 0.00 91 1013.6
20260502115317 59 0.0 0.0 0.00 0.00 0.00 91 1013.6
20260502114816 59 0.0 0.9 0.00 0.00 0.00 91 1013.6
20260502114337 59 0.0 0.0 0.00 0.00 0.00 91 1013.5
20260502113837 59 0.0 0.0 0.00 0.00 0.00 91 1013.4
20260502113316 59 260 0.9 0.9 0.00 0.00 0.00 91 1013.4
20260502112836 59 0.0 0.9 0.00 0.00 0.00 91 1013.4
20260502112316 59 238 0.9 0.9 0.00 0.00 0.00 91 1013.4
20260502111816 59 0.0 0.9 0.00 0.00 0.00 91 1013.3
20260502111316 59 0.0 0.9 0.00 0.00 0.00 91 1013.4
20260502110816 59 0.0 0.9 0.00 0.00 0.00 91 1013.5
20260502110316 59 0.0 0.0 0.00 0.00 0.00 91 1013.5
20260502105837 59 0.0 0.0 0.00 0.00 0.00 91 1013.5
20260502105317 59 0.0 0.9 0.00 0.00 0.00 91 1013.4
20260502104837 59 0.0 0.0 0.00 0.00 0.00 91 1013.3
20260502104437 59 0.0 0.9 0.00 0.00 0.00 91 1013.3
20260502103817 59 0.0 0.0 0.00 0.00 0.00 91 1013.2
20260502103317 59 260 0.9 1.7 0.00 0.00 0.00 91 1013.1
20260502102816 58 0.0 0.9 0.00 0.00 0.00 91 1013.2
20260502102316 58 283 1.7 2.6 0.00 0.00 0.00 92 1013.2
20260502101817 58 283 0.9 1.7 0.00 0.00 0.00 92 1013.2
20260502101317 58 0.0 0.9 0.00 0.00 0.00 92 1013.1
20260502100816 58 0.0 0.0 0.00 0.00 0.00 92 1013.2
20260502100316 58 0.0 0.0 0.00 0.00 0.00 92 1013.2
20260502091317 57 0.0 0.0 0.00 0.00 0.00 93 1013.3
20260502090816 57 0.0 0.0 0.00 0.00 0.00 93 1013.3
20260502090316 57 0.0 0.0 0.00 0.00 0.00 93 1013.4
20260502071316 59 305 0.9 0.9 0.00 0.00 0.00 90 1014.1
20260502070816 59 0.0 0.9 0.00 0.00 0.00 90 1014.2
20260502070336 59 0.0 0.9 0.00 0.00 0.00 90 1014.1
20260502065816 59 0.0 0.0 0.00 0.00 0.00 90 1014.1
20260502065317 59 305 0.9 0.9 0.00 0.00 0.00 90 1014.1
20260502064817 59 0.0 0.0 0.00 0.00 0.00 89 1014.1
20260502064317 59 0.0 0.9 0.00 0.00 0.00 89 1014.0
20260502063816 59 328 0.9 1.7 0.00 0.00 0.00 89 1014.0
20260502063317 59 305 0.9 1.7 0.00 0.00 0.00 89 1014.1
20260502062816 59 0.0 0.0 0.00 0.00 0.00 89 1014.1
20260502062316 59 0.0 0.0 0.00 0.00 0.00 89 1014.0
20260502061837 59 0.0 0.0 0.00 0.00 0.00 89 1013.9
20260502061317 59 0.0 0.9 0.00 0.00 0.00 89 1013.9
20260502060816 60 0.0 0.9 0.00 0.00 0.00 89 1013.9
20260502060316 60 305 0.9 1.7 0.00 0.00 0.00 89 1013.8
20260502055816 60 350 0.9 1.7 0.00 0.00 0.00 88 1013.8
20260502055317 60 13 0.9 1.7 0.00 0.00 0.00 88 1013.8
20260502054816 60 305 0.9 1.7 0.00 0.00 0.00 88 1013.8
20260502054337 60 305 0.9 1.7 0.00 0.00 0.00 88 1013.9
20260502053816 60 328 0.9 1.7 0.00 0.00 0.00 88 1013.9
20260502053316 60 0.0 0.9 0.00 0.00 0.00 88 1013.9
20260502052816 60 305 0.9 1.7 0.00 0.00 0.00 88 1013.9
20260502052316 60 0.0 0.9 0.00 0.00 0.00 88 1014.0
20260502051836 60 305 0.9 1.7 0.00 0.00 0.00 88 1013.9
20260502051316 60 260 2.6 3.5 0.00 0.00 0.00 88 1013.9
20260502050836 60 305 1.7 2.6 0.00 0.00 0.00 87 1014.0
20260502050317 60 283 2.6 4.3 0.00 0.00 0.00 87 1013.9
20260502045816 60 283 1.7 2.6 0.00 0.00 0.00 87 1013.8
20260502045316 61 283 2.6 3.5 0.00 0.00 0.00 87 1013.8
20260502044817 61 260 3.5 6.1 0.00 0.00 0.00 87 1013.8
20260502044316 61 283 0.9 1.7 0.00 0.00 0.00 87 1013.7
20260502043816 61 283 3.5 3.5 0.00 0.00 0.00 87 1013.6
20260502043316 61 238 2.6 4.3 0.00 0.00 0.00 87 1013.5
20260502042836 61 260 3.5 4.3 0.00 0.00 0.00 87 1013.5
20260502042316 61 283 3.5 4.3 0.00 0.00 0.00 86 1013.5
20260502041836 61 260 1.7 2.6 0.00 0.00 0.00 87 1013.5
20260502041336 61 283 2.6 3.5 0.00 0.00 0.00 86 1013.4
20260502040837 61 283 2.6 3.5 0.00 0.00 0.00 86 1013.4
20260502040316 61 283 3.5 6.1 0.00 0.00 0.00 86 1013.3
20260502035817 61 305 2.6 5.2 0.00 0.00 0.00 86 1013.2
20260502035316 61 283 3.5 5.2 0.00 0.00 0.00 86 1013.2
20260502034836 61 260 2.6 4.3 0.00 0.00 0.00 86 1013.1
20260502034317 61 305 3.5 6.1 0.00 0.00 0.00 86 1013.0
20260502033917 61 260 3.5 4.3 0.00 0.00 0.00 86 1012.9
20260502033336 61 283 2.6 3.5 0.00 0.00 0.00 86 1012.9
20260502032816 61 283 3.5 6.1 0.00 0.00 0.00 86 1012.8
20260502032316 62 260 3.5 5.2 0.00 0.00 0.00 86 1012.7
20260502031836 62 260 2.6 4.3 0.00 0.00 0.00 86 1012.6
20260502031316 62 305 2.6 4.3 0.00 0.00 0.00 85 1012.5
20260502030816 62 283 2.6 4.3 0.00 0.00 0.00 85 1012.5
20260502030316 62 260 3.5 7.0 0.00 0.00 0.00 85 1012.5
20260502025817 62 260 3.5 5.2 0.00 0.00 0.00 85 1012.5
20260502025316 62 260 3.5 5.2 0.00 0.00 0.00 85 1012.4
20260502024836 62 283 4.3 7.0 0.00 0.00 0.00 84 1012.4
20260502024336 62 283 1.7 3.5 0.00 0.00 0.00 85 1012.3
20260502023837 62 260 4.3 7.0 0.00 0.00 0.00 84 1012.3
20260502023316 62 283 3.5 5.2 0.00 0.00 0.00 84 1012.4
20260502022816 63 260 7.0 8.7 0.00 0.00 0.00 83 1012.4
20260502022316 63 283 3.5 5.2 0.00 0.00 0.00 83 1012.3
20260502021816 63 260 6.1 10.4 0.00 0.00 0.00 82 1012.2
20260502021316 63 260 4.3 7.0 0.00 0.00 0.00 81 1012.2
20260502020816 64 260 7.0 9.6 0.00 0.00 0.00 80 1012.0
20260502020316 64 283 7.0 12.2 0.00 0.00 0.00 79 1012.0
20260502015816 65 283 7.8 10.4 0.00 0.00 0.00 78 1011.9
20260502015316 65 283 5.2 7.0 0.00 0.00 0.00 78 1011.9
20260502014816 65 283 4.3 6.1 0.00 0.00 0.00 77 1011.8
20260502014336 65 260 6.1 8.7 0.00 0.00 0.00 78 1011.9
20260502013837 65 260 6.1 8.7 0.00 0.00 0.00 77 1011.8
20260502013336 66 260 4.3 7.8 0.00 0.00 0.00 76 1011.8
20260502012836 66 260 7.8 10.4 0.00 0.00 0.00 76 1011.8
20260502012316 66 260 5.2 8.7 0.00 0.00 0.00 76 1011.7
20260502011816 66 260 4.3 7.0 0.00 0.00 0.00 76 1011.6
20260502011316 67 260 7.0 10.4 0.00 0.00 0.00 75 1011.7
20260502010836 67 283 4.3 7.0 0.00 0.00 0.00 75 1011.7
20260502010356 67 283 7.8 11.3 0.00 0.00 0.00 74 1011.7
20260502005816 68 260 6.1 8.7 0.00 0.00 0.00 74 1011.7
20260502005457 68 260 5.2 7.0 0.00 0.00 0.00 75 1011.7
20260502004816 68 260 7.8 11.3 0.00 0.00 0.00 74 1011.7
20260502004416 68 260 6.1 10.4 0.00 0.00 0.00 74 1011.6
20260502003836 68 283 3.5 5.2 0.00 0.00 0.00 74 1011.7
20260502003316 68 260 7.0 10.4 0.00 0.00 0.00 73 1011.6
20260502002816 68 283 7.8 10.4 0.00 0.00 0.00 72 1011.6